Regional Weather Roundup
Issued by NWS

Home | Current Version | Previous Version | Text Only | Print | Product List | Glossary On
Versions: 1 2 3 4 5 6 7 8 9 10 11 12 13 14 15 16 17 18 19 20 21 22 23 24 25 26 27 28 29 30 31 32 33 34 35 36 37 38 39 40 41 42 43 44 45 46 47 48 49 50
000
ASUS43 KLSX 012110
RWRMO

WEATHER SUMMARY FOR MISSOURI
NATIONAL WEATHER SERVICE SPRINGFIELD MO
300 PM CST WED MAR 01 2017

NOTE: "FAIR" INDICATES FEW OR NO CLOUDS BELOW 12,000 FEET WITH NO
       SIGNIFICANT WEATHER AND/OR OBSTRUCTIONS TO VISIBILITY.
       CURRENT SKY AND/OR WEATHER CONDITIONS ARE NOT AVAILABLE FOR
       CHILLICOTHE AND FARMINGTON.

MOZ001>031-035>038-043-044-053-054-012200-
...NORTHERN AND WESTERN MISSOURI...

CITY           SKY/WX    TMP DP  RH WIND       PRES   REMARKS
KANSAS CTY INT MOSUNNY   50  23  34 NW20G28   30.12R
KANSAS C DTWN  MOSUNNY   52  23  32 NW13G26   30.12R
LEE`S SUMMIT   MOSUNNY   51  26  37 NW18G25   30.12R
ST JOSEPH      MOSUNNY   50  25  37 NW23G36   30.13R
CHILLICOTHE      N/A     47  27  45 NW12G24   30.11R
KIRKSVILLE     PTSUNNY   42  27  55 W21G31    30.05R

$$
MOZ066>068-077>081-088>096-101>105-012200-
...SOUTHWEST MISSOURI...

CITY           SKY/WX    TMP DP  RH WIND       PRES   REMARKS
SPRINGFIELD    SUNNY     53  20  27 NW21G31   30.11R
JOPLIN         SUNNY     55  22  27 NW22G29   30.17R
BRANSON        MOSUNNY   54  18  24 W23G41    30.12R

$$
MOZ032>034-039>042-045>050-055>058-069>072-012200-
...CENTRAL MISSOURI...

CITY           SKY/WX    TMP DP  RH WIND       PRES   REMARKS
COLUMBIA       MOSUNNY   49  31  49 W24G35    30.06R
JEFFERSON CITY PTSUNNY   50  31  48 NW18G25   30.07R
ROLLA          LGT RAIN  50  26  39 NW23G33   30.04R
SEDALIA        MOSUNNY   50  29  44 W23G33    30.10R
WHITEMAN AFB   MOSUNNY   50  25  37 NW23G31   30.10R
WARRENSBURG    SUNNY     50  25  37 NW17G23   30.12R
OSAGE BEACH    SUNNY     52  26  36 NW14G26   30.09R

$$
MOZ051-052-059>065-012200-
...EAST CENTRAL MISSOURI...

CITY           SKY/WX    TMP DP  RH WIND       PRES   REMARKS
ST LOUIS INTL  PTSUNNY   48  31  51 NW23G36   30.01R
SPIRIT OF STL  PTSUNNY   49  30  48 W23G39    30.02R
ST CHARLES     CLOUDY    45  32  60 W22G32    30.00R

$$
MOZ072>076-082>087-097>100-106>115-012200-
...SOUTH CENTRAL AND SOUTHEAST MISSOURI...

CITY           SKY/WX    TMP DP  RH WIND       PRES   REMARKS
CAPE GIRARDEAU SUNNY     60  22  23 NW33G40   29.98R
FARMINGTON     MOSUNNY   54  28  36 NW15G24   30.00
POPLAR BLUFF   SUNNY     60  22  23 NW23G35   29.99R
WEST PLAINS    SUNNY     56  20  24 NW17G31   30.07R

$$




USA.gov is the U.S. government's official web portal to all federal, state and local government web resources and services.